Regional Weather Roundup
Issued by NWS

Home | Current Version | Previous Version | Text Only | Print | Product List | Glossary Off
Versions: 1 2 3 4 5 6 7 8 9 10 11 12 13 14 15 16 17 18 19 20 21 22 23 24 25 26 27 28 29 30 31 32 33 34 35 36 37 38 39 40 41 42 43 44 45 46 47 48 49 50

000
ASUS43 KLOT 262209
RWRIL

ILLINOIS REGIONAL WEATHER ROUNDUP
NATIONAL WEATHER SERVICE CHICAGO/ROMEOVILLE IL
500 PM CDT THU MAY 26 2016

NOTE: "FAIR" INDICATES FEW OR NO CLOUDS BELOW 12,000 FEET WITH NO
SIGNIFICANT WEATHER AND/OR OBSTRUCTIONS TO VISIBILITY.

* THESE STATIONS ARE NOT UNDER NWS QUALITY CONTROL. THEY ALSO MAY NOT
  REPORT WEATHER SUCH AS PRECIPITATION OR FOG.

ILZ001-002-007-009-015-016-024-262300-
NORTHWEST ILLINOIS

CITY           SKY/WX    TMP DP  RH WIND       PRES   REMARKS
MOLINE         CLOUDY    88  64  44 CALM      29.80F HAZE    HX  89
STERLING*      MOSUNNY   86  66  51 W9        29.80F HX  88
SAVANNA*       MOSUNNY   85  60  41 N3        29.80F HX  85
$$

ILZ003-004-008-010-011-017-018-262300-
NORTH CENTRAL ILLINOIS

CITY           SKY/WX    TMP DP  RH WIND       PRES   REMARKS
ROCKFORD       PTSUNNY   84  62  47 VRB6      29.83F HX  85
FREEPORT*      SUNNY     83  61  46 CALM      29.82F HX  84
ROCHELLE*      CLOUDY    83  66  56 W6        29.82F HX  85
DE KALB*       SUNNY     82  65  58 SW8       29.84F HX  83
$$

ILZ005-006-012>014-019>023-262300-
NORTHEAST ILLINOIS

CITY           SKY/WX    TMP DP  RH WIND       PRES   REMARKS
CHICAGO-OHARE  PTSUNNY   82  63  52 SW9       29.83F HX  83
CHICAGO-MIDWAY PTSUNNY   84  63  49 SW10      29.84F HX  85
AURORA         SUNNY     84  66  54 SW5       29.83F HX  86
LANSING*       MOSUNNY   82  62  50 SW9       29.86F HX  82
JOLIET*        PTSUNNY   86  65  49 S9G16     29.84S HX  87
WAUKEGAN       SUNNY     81  63  54 SW9       29.83S HX  82
DUPAGE AIRPORT SUNNY     83  63  50 SW8       29.83F HX  84
KANKAKEE*      MOSUNNY   85  65  50 SW12      29.87S HX  87
WHEELING       SUNNY     83  61  47 W10       29.84F HX  83
MORRIS*        SUNNY     87  59  37 SW9G16    29.82F HX  87
ROMEOVILLE*    SUNNY     85  58  39 W7        29.84F HX  84
NORTHERLY ISL    N/A     82  58  43 SW8         N/A  HX  82
NORTHERLY ISL    N/A     82  58  43 SW8         N/A  HX  82
$$

LMZ740>746-262300-
SOUTHERN LAKE MICHIGAN

STATION/POSITION SKY/WX   TEMP    WIND        PRES    VSBY  WAVE
                          AIR SEA DIR/SP/G                  HT/PER
                          (F)     (DEG/KT/KT) (MB)    (MI)  (FT/S)
SOUTHERN BUOY              58 50  160/  8/  8 1010.6F         1
WILMETTE HARBOR            65 57  110/  6/  8   N/A           1
HARRISON CRIB              81     220/ 10/ 11   N/A
BURNHAM HARBOR             82     230/  9/ 12   N/A
CALUMET HARBOR             83     230/ 10/ 16 1010.5F
BURNS HARBOR               79     210/ 13/ 15 1011.5F
MICHIGAN CITY              71     260/  4/  6   N/A
MICHIGAN CITY 6N           71 62  130/  2/  4   N/A           1
ST. JOSEPH                 65 63  360/  2/  2   N/A           1
$$

ILZ025>027-034>036-040-047-049-050-058-095>099-262300-
WEST-CENTRAL ILLINOIS

CITY           SKY/WX    TMP DP  RH WIND       PRES   REMARKS
QUINCY         CLOUDY    82  64  54 S8        29.82R HX  83
GALESBURG*     MOSUNNY   83  63  50 S5        29.83S HX  84
MACOMB*        MOSUNNY   83  66  55 S7        29.84F HX  85
JACKSONVILLE*  SUNNY     83  68  60 S12       29.84S HX  86
PITTSFIELD*    SUNNY     83  69  62 S10       29.84F HX  86
$$

ILZ028>032-037-038-041>044-048-051>054-059>061-262300-
CENTRAL ILLINOIS

CITY           SKY/WX    TMP DP  RH WIND       PRES   REMARKS
PONTIAC        SUNNY     87  59  38 SW10      29.85F HX  87
BLOOMINGTON    SUNNY     84  69  60 S14       29.87F HX  87
DECATUR        MOSUNNY   81  67  62 S10       29.87F HX  83
PEORIA         SUNNY     84  63  49 SW13      29.83F HX  85
LACON*         SUNNY     85  62  46 S9        29.82F HX  85
LINCOLN*       MOSUNNY   84  70  63 S9        29.84F HX  88
SPRINGFIELD    CLOUDY    83  70  64 S13       29.85F HX  87
TAYLORVILLE    CLOUDY    78  69  73 S16       29.88F HX  80
$$

ILZ033-039-045-046-055>057-062-063-262300-
EAST-CENTRAL ILLINOIS

CITY           SKY/WX    TMP DP  RH WIND       PRES   REMARKS
CHAMPAIGN      MOSUNNY   81  66  60 SW13      29.90F HX  83
RANTOUL*       CLOUDY    82  68  62 SW12      29.88F HX  85
MATTOON        CLOUDY    74  65  73 S8        29.90F
PARIS*         CLOUDY    75  66  74 S7        29.92F
$$

ILZ079-100>102-262300-
SOUTHWEST ILLINOIS

CITY           SKY/WX    TMP DP  RH WIND       PRES   REMARKS
ALTON          PTSUNNY   77  66  69 S9        29.89F
BELLEVILLE     CLOUDY    76  67  73 VRB3      29.89F
CAHOKIA*       MOSUNNY   79  66  64 S8        29.89F HX  81
SPARTA*        CLOUDY    72  66  81 S5        29.92F
$$

ILZ064>066-069>071-074>076-080>082-084>086-088>090-092>094-262300-
SOUTH-CENTRAL ILLINOIS

CITY           SKY/WX    TMP DP  RH WIND       PRES   REMARKS
CARBONDALE     CLOUDY    70  63  78 S10       29.89R
CAIRO*         CLOUDY    67  64  90 SE15      29.93F
EFFINGHAM*     CLOUDY    73  67  82 SE6       29.93F
MARION         PTSUNNY   68  66  94 S17       29.92F
MT. VERNON     CLOUDY    68  61  77 SW7       29.93F
CENTRALIA*     CLOUDY    71  67  87 CALM      29.92F
SALEM*         CLOUDY    72  65  79 SW8       29.93F
METROPOLIS*    RAIN      66  66 100 E8        30.02F
$$

ILZ067-068-072-073-078-083-087-091-262300-
SOUTHEAST ILLINOIS

CITY           SKY/WX    TMP DP  RH WIND       PRES   REMARKS
LAWRENCEVILLE  CLOUDY    72  67  84 SE8       29.95S
FLORA*         CLOUDY    72  66  80 SW8       29.93F
FAIRFIELD*     CLOUDY    69  65  84 SW5       29.93S
HARRISBURG*    LGT RAIN  69  64  84 S16       29.97R
ROBINSON*      CLOUDY    71  66  84 S7        29.95S
CARMI*         CLOUDY    68  65  92 W12G23    29.95S
$$

ABBREVIATIONS USED IN REMARKS
   TC - TEMPERATURE IN CELSIUS
  WCI - WIND CHILL INDEX
   HX - HEAT INDEX
  VSB - VISIBILITY
$$





USA.gov is the U.S. government's official web portal to all federal, state and local government web resources and services.